CFG1613 EDDG-EDDL

Flight info

Callsign CFG1613
Flight time 0h 18m
Altitude 12000
Route DOMEG2C DOMEG T846 HALME HALME1A
Aircraft A321/M-SDE3FGHIRWY/LB1

Departure

Time 2026-05-04 17:09
Airport Münster Osnabrück Airport (EDDG)

Arrival

Time 2026-05-04 17:27
Airport Düsseldorf Airport (EDDL)
Time Latitude Longitude Altitude Speed Heading
2026-05-04 16:56 52.13246 7.69122 167 ft 0 kts 341°
2026-05-04 17:05 52.13255 7.69117 167 ft 6 kts 341°
2026-05-04 17:05 52.13328 7.69101 166 ft 7 kts 47°
2026-05-04 17:06 52.13408 7.69236 165 ft 15 kts 357°
2026-05-04 17:06 52.13468 7.69323 167 ft 11 kts 73°
2026-05-04 17:07 52.13526 7.69596 167 ft 26 kts 70°
2026-05-04 17:07 52.13566 7.69788 166 ft 27 kts 72°
2026-05-04 17:07 52.13706 7.70025 164 ft 23 kts 350°
2026-05-04 17:07 52.13767 7.69931 166 ft 6 kts 266°
2026-05-04 17:08 52.13760 7.69883 168 ft 4 kts 253°
2026-05-04 17:08 52.13533 7.68801 167 ft 117 kts 251°
2026-05-04 17:08 52.13214 7.67274 282 ft 157 kts 252°
2026-05-04 17:09 52.12835 7.65631 949 ft 156 kts 243°
2026-05-04 17:09 52.12030 7.64451 1500 ft 166 kts 198°
2026-05-04 17:09 52.10853 7.64270 2022 ft 171 kts 182°
2026-05-04 17:10 52.08570 7.63969 3385 ft 161 kts 186°
2026-05-04 17:10 52.06156 7.63618 4035 ft 201 kts 186°
2026-05-04 17:11 52.04687 7.63409 4260 ft 223 kts 186°
2026-05-04 17:11 52.03081 7.63181 4764 ft 234 kts 186°
2026-05-04 17:11 51.99879 7.62740 6369 ft 233 kts 186°
2026-05-04 17:12 51.98255 7.62516 7062 ft 236 kts 186°
2026-05-04 17:12 51.94966 7.62055 8439 ft 242 kts 186°
2026-05-04 17:13 51.89818 7.61334 10409 ft 252 kts 186°
2026-05-04 17:14 51.84791 7.58604 12041 ft 260 kts 204°
2026-05-04 17:14 51.83119 7.57488 11967 ft 267 kts 204°
2026-05-04 17:14 51.79496 7.55038 11988 ft 291 kts 203°
2026-05-04 17:15 51.77644 7.53748 11982 ft 289 kts 204°
2026-05-04 17:15 51.73990 7.51188 11276 ft 285 kts 204°
2026-05-04 17:16 51.70866 7.47374 10520 ft 282 kts 222°
2026-05-04 17:16 51.66542 7.40983 9989 ft 281 kts 222°
2026-05-04 17:17 51.65125 7.38887 9737 ft 278 kts 222°
2026-05-04 17:17 51.60868 7.32619 8483 ft 274 kts 222°
2026-05-04 17:18 51.59475 7.30571 8257 ft 265 kts 222°
2026-05-04 17:18 51.56933 7.26839 7793 ft 237 kts 221°
2026-05-04 17:19 51.54534 7.23318 6720 ft 232 kts 221°
2026-05-04 17:19 51.52155 7.19837 5786 ft 230 kts 220°
2026-05-04 17:20 51.49822 7.16428 4907 ft 226 kts 221°
2026-05-04 17:20 51.47510 7.13055 4044 ft 221 kts 221°
2026-05-04 17:20 51.46364 7.11391 3999 ft 223 kts 221°
2026-05-04 17:21 51.44044 7.08015 3996 ft 226 kts 220°
2026-05-04 17:21 51.41745 7.04658 3988 ft 218 kts 223°
2026-05-04 17:22 51.40833 7.02799 3878 ft 208 kts 239°
2026-05-04 17:22 51.40092 7.00891 3628 ft 196 kts 233°
2026-05-04 17:23 51.38301 6.97004 3077 ft 175 kts 231°
2026-05-04 17:23 51.37567 6.95448 2839 ft 174 kts 232°
2026-05-04 17:23 51.36112 6.92372 2373 ft 172 kts 232°
2026-05-04 17:24 51.35402 6.90871 2151 ft 170 kts 231°
2026-05-04 17:24 51.33408 6.86660 1497 ft 137 kts 231°
2026-05-04 17:25 51.32844 6.85471 1315 ft 132 kts 229°
2026-05-04 17:25 51.31741 6.83151 958 ft 131 kts 231°
2026-05-04 17:26 51.30673 6.80863 590 ft 129 kts 230°
2026-05-04 17:26 51.29036 6.77450 127 ft 124 kts 228°
2026-05-04 17:27 51.28513 6.76359 121 ft 35 kts 232°
2026-05-04 17:27 51.28191 6.75948 126 ft 25 kts 205°
2026-05-04 17:28 51.28143 6.75913 128 ft 0 kts 205°
2026-05-04 17:29 51.28093 6.75875 123 ft 11 kts 205°
2026-05-04 17:30 51.27853 6.75848 126 ft 11 kts 131°
2026-05-04 17:31 51.27883 6.76045 128 ft 10 kts 12°
2026-05-04 17:31 51.28016 6.76080 125 ft 5 kts 76°
2026-05-04 17:32 51.27989 6.76190 127 ft 0 kts 118°